Location: Molveno
(46.1500°N, 10.9667°E)
Time: 01:40:31
(UTC+00:00)

Cosmos 2333 Rocket - Pass Details

Date: 05 July 2020
Orbit: 837 x 864 km, 70.8° (Epoch: 11 August)

Event Time Altitude Azimuth Distance (km) Brightness Sun altitude
Rises 22:24:18 0° 243° (WSW) 3,399 5.2 -20.0°
Reaches altitude 10° 22:27:09 10° 256° (WSW) 2,472 4.6 -20.1°
Maximum altitude 22:31:51 26° 312° (NW) 1,620 4.2 -20.3°
Drops below altitude 10° 22:36:36 10° 8° (N) 2,499 5.7 -20.5°
Sets 22:39:31 0° 21° (NNE) 3,443 6.3 -20.5°
